星链-11258 (STARLINK-11258)

导读

STARLINK-11258是美国SpaceX星链星座的一员,于2025年1月13日发射入轨,属于星链互联网卫星网络的扩容卫星。星链系统旨在为全球提供高速低延迟宽带网络服务,覆盖偏远地区与网络基础设施薄弱区域,该卫星延续星链设计,参与构建低轨通信卫星星座,支撑全球互联服务的覆盖能力与网络冗余。

基本信息
目录编号:
62598
目录名称:
STARLINK-11258
国际标识:
2025-008M
轨道中心:
EARTH
卫星名称:
星链-11258
卫星全名:
星链-11258 (STARLINK-11258)
卫星状态:
在轨 (已飞行600 天)
发射日期:
2025-01-13 UTC
国别 :
美国 (US)
星等 :
--
轨道信息
数据来源 国际轨道数据
星历时间: 2026-09-04T23:59:15+0800
15小时前
查看轨道信息
半长轴: 6734.443km
偏心率: 0.0002426
轨道倾角: 43.001°
近地点辐角 271.549°
升交点赤经 127.257°
平近点角 88.510°
近地点: 354.672km
远地点: 357.94km
周期: 91.667分钟
每日圈数: 15.709063
详细信息
固有亮度:
5
最大亮度:
2.5
卫星平台:
Starlink V1.0
覆盖范围:
全球
运营商:
太空探索技术公司
运营商所在国:
美国
制造商(研发单位):
太空探索技术公司
制造商所在国:
美国
使用方式:
暂无
卫星简介
Starlink 计划是 SpaceX 推出的全球卫星互联网项目,通过发射低轨道卫星,为全球尤其是偏远地区提供高速、低延迟的互联网服务。自 2019 年起,Starlink 已部署数千颗卫星,旨在缩小全球数字鸿沟,推动互联网普及。该项目还为军事、航空等行业提供通信支持,带来广泛经济效益。
2D轨道图
3D轨道图
轨道高度分析图
轨道倾角分析图
轨道综合分析图
查看轨道综合分析图